Погода в Крестовке

Украина / Донецкая область     48°08′47″N   38°21′37″E
темп.,
°C
ветер,
м/с
пор.,
м/с
влажн.,
%
обл.,
%
осадки,
мм/ч
давл.,
гПа
погр.,
м
6 мая, чт
чт600:00+9ююв235513 0.0 101686
03:00+9юв2452100 0.0 101695
06:00+9юв3863100 0.0 1016191
09:00+13ююв595375 0.0 1015805
12:00+17ююв6842100 0.0 10131650
15:00+18ю5637100 0.0 10121818
18:00+17ююв4546100 0.0 1012838
21:00+13ю23615 0.0 101274
7 мая, пт
пт700:00+12ююз1266100 0.0 101230
03:00+11сз3574100 0.0 1013153
06:00+11ссз258197 0.0 1014221
09:00+13ссз4473100 0.0 1016723
12:00+16ссз3355100 0.0 10161276
15:00+18сз2337100 0.0 10161837
18:00+18св123990 0.0 10151227
21:00+14ю377198 0.1 1016230
8 мая, сб
сб800:00+12ююв3877100 0.0 1015209
03:00+12ююв3870100 0.0 1014241
06:00+11ю4107795 0.0 1014341
09:00+15ю61061100 0.0 1013715
12:00+19ю7951100 0.0 10121191
15:00+20ююз7946100 0.0 10101636
18:00+19юз485891 0.1 10101029
21:00+12ссз5784100 0.1 1012533
9 мая, вс
вс900:00+10ссз7985100 0.1 1013759
03:00+7с81385100 0.2 1014839
06:00+5с81390100 2.3 1015900
09:00+7с71283100 4.9 10161106
12:00+8с71268100 0.7 10181457
15:00+12ссз81149100 0.8 10182249
18:00+11ссз71157100 0.3 10201348
21:00+9ссз51165100 0.6 1022795
10 мая, пн
пн1000:00+7ссз51170100 0.0 1023585
03:00+6сз51277100 0.1 1023524
06:00+6ссз71476100 0.0 1023692
09:00+8ссз91773100 0.7 10211414
12:00+6с81589100 5.3 10201142
15:00+7с81693100 6.9 1019790
18:00+7с81695100 1.2 1018770
21:00+8с81796100 2.9 1016810